User: anonymous   Login
Location: Unspecified
(0.0000°N, 0.0000°E)
Time: 02:16:25
(UTC+00:00)
Language:

Tiros 1 - Orbit

View from above orbital plane
View from above orbital plane
View from above satellite
View from above satellite

Ground track
Ground track

The orbit data is extracted from the following two-line orbital elements,

1 00029U 60002B   15213.81996458  .00000143  00000-0  52737-4 0  9997
2 00029 048.3802 074.4691 0024176 173.3560 186.7677 14.73856282955797
Epoch (UTC): 01 August 2015 19:40:44
Eccentricity: 0.0024176
inclination: 48.3802°
perigee height: 632 km
apogee height: 666 km
right ascension of ascending node: 74.4691°
argument of perigee: 173.3560°
revolutions per day: 14.73856282
mean anomaly at epoch: 186.7677°
orbit number at epoch: 95579

The dashed part of the orbit path shows where the satellite is in the earth's shadow,  

DLR